Location: Bavegemberg
(50.9500°N, 3.8833°E)
Time: 14:35:47
(UTC+00:00)

Cosmos 2151 Rocket - Pass Details

Date: 23 May 2024
Orbit: 614 x 639 km, 82.5° (Epoch: 18 June)

Event Time Altitude Azimuth Distance (km) Brightness Sun altitude
Rises 02:33:28 0° 349° (N) 2,947 7.6 -9.0°
Reaches altitude 10° 02:35:44 10° 350° (N) 2,030 6.8 -8.8°
Maximum altitude 02:40:15 90° 74° (ENE) 638 3.6 -8.3°
Drops below altitude 10° 02:44:41 10° 171° (S) 1,997 5.8 -7.9°
Sets 02:46:54 0° 171° (S) 2,895 6.6 -7.6°
